KJ4YRE Weather Reports


Display with metric or nautical units.
time (UTC)temp
F
wind
direction
speed
MPH
gust
MPH
rain 1hr
in
rain 24hr
in
rain mn
in
humidity
%
barometer
mb
20260502170507 57 68 3.0 7.0 0.00 0.00 0.00 58 1014.8
20260502164005 57 74 3.0 6.0 0.00 0.00 0.00 61 1014.8
20260502163716 57 66 2.0 7.0 0.00 0.00 0.00 62 1014.9
20260502163007 57 73 3.0 7.0 0.00 0.00 0.00 61 1014.8
20260502162714 58 72 3.0 8.0 0.00 0.00 0.00 61 1014.9
20260502162215 58 70 5.0 10.0 0.00 0.00 0.00 62 1014.9
20260502161506 57 77 2.0 8.0 0.00 0.00 0.00 63 1014.9
20260502161005 57 77 2.0 9.0 0.00 0.00 0.00 65 1015.0
20260502160507 57 79 2.0 8.0 0.00 0.00 0.00 64 1015.1
20260502151717 57 73 3.0 7.0 0.00 0.00 0.00 68 1015.2
20260502151005 56 77 1.0 3.0 0.00 0.00 0.00 69 1015.2
20260502150717 56 75 1.0 5.0 0.00 0.00 0.00 69 1015.4
20260502130507 55 77 2.0 5.0 0.00 0.00 0.00 81 1015.1
20260502123505 54 77 1.0 2.0 0.00 0.00 0.00 84 1014.8
20260502123007 53 78 1.0 3.0 0.00 0.00 0.00 84 1014.8
20260502122505 53 79 2.0 6.0 0.00 0.00 0.00 84 1014.7
20260502122005 53 77 2.0 7.0 0.00 0.00 0.00 85 1014.7
20260502121505 53 73 2.0 5.0 0.00 0.00 0.00 85 1014.6
20260502121005 53 76 2.0 6.0 0.00 0.00 0.00 86 1014.7
20260502120716 53 70 1.0 3.0 0.00 0.00 0.00 86 1014.7
20260502115504 53 79 3.0 7.0 0.00 0.00 0.00 87 1014.6
20260502115006 53 77 2.0 5.0 0.00 0.00 0.00 88 1014.7
20260502114507 53 135 1.0 3.0 0.00 0.00 0.00 89 1014.7
20260502114006 53 65 1.0 7.0 0.00 0.00 0.00 88 1014.7
20260502113508 52 78 2.0 5.0 0.00 0.00 0.00 88 1014.8
20260502113006 52 79 1.0 3.0 0.00 0.00 0.00 91 1014.6
20260502112505 52 77 1.0 2.0 0.00 0.00 0.00 93 1014.5
20260502112007 52 77 0.0 2.0 0.00 0.00 0.00 93 1014.5
20260502111505 52 75 1.0 2.0 0.00 0.00 0.00 92 1014.7
20260502111217 52 77 1.0 2.0 0.00 0.00 0.00 92 1014.6
20260502110506 51 77 0.0 1.0 0.00 0.00 0.00 93 1014.4
20260502110005 51 77 1.0 3.0 0.00 0.00 0.00 93 1014.4
20260502105505 51 71 1.0 3.0 0.00 0.00 0.00 94 1014.4
20260502105005 51 64 1.0 5.0 0.00 0.00 0.00 95 1014.2
20260502104505 51 65 2.0 3.0 0.00 0.00 0.00 95 1014.1
20260502104006 51 73 1.0 3.0 0.00 0.00 0.00 96 1014.0
20260502103506 50 68 1.0 2.0 0.00 0.00 0.00 98 1013.6
20260502103008 50 63 0.0 1.0 0.00 0.00 0.00 100 1013.3
20260502102506 50 77 1.0 1.0 0.00 0.00 0.00 100 1013.3
20260502102006 50 63 0.0 2.0 0.00 0.00 0.00 100 1013.2
20260502101505 49 73 1.0 3.0 0.00 0.00 0.00 100 1013.1
20260502101006 49 73 1.0 3.0 0.00 0.00 0.00 100 1013.1
20260502100505 49 70 1.0 2.0 0.00 0.00 0.00 100 1013.2
20260502091506 49 77 0.0 0.0 0.00 0.00 0.00 100 1012.9
20260502091006 49 77 0.0 0.0 0.00 0.00 0.00 100 1012.8
20260502090717 49 82 0.0 0.0 0.00 0.00 0.00 100 1012.9
20260502071006 51 74 1.0 2.0 0.00 0.00 0.00 99 1013.1
20260502070507 51 73 1.0 5.0 0.00 0.00 0.00 100 1012.8
20260502070007 51 77 3.0 5.0 0.00 0.00 0.00 99 1012.9
20260502065505 51 77 1.0 2.0 0.00 0.00 0.00 98 1012.7
20260502065007 51 77 0.0 1.0 0.00 0.00 0.00 98 1012.7
20260502064506 51 67 1.0 2.0 0.00 0.00 0.00 98 1012.6
20260502064005 51 217 2.0 5.0 0.00 0.00 0.00 98 1012.6
20260502063506 51 225 0.0 2.0 0.00 0.00 0.00 98 1012.6
20260502063005 51 230 2.0 3.0 0.00 0.00 0.00 98 1012.7
20260502062505 51 242 1.0 2.0 0.00 0.00 0.00 97 1012.9
20260502062006 51 206 1.0 2.0 0.00 0.00 0.00 96 1012.9
20260502061217 51 212 0.0 3.0 0.00 0.00 0.00 96 1013.2
20260502060506 51 240 1.0 3.0 0.00 0.00 0.00 95 1013.3
20260502060006 52 235 0.0 2.0 0.00 0.00 0.00 94 1013.5
20260502055507 52 252 0.0 2.0 0.00 0.00 0.00 95 1013.4
20260502055006 52 227 0.0 3.0 0.00 0.00 0.00 94 1013.5
20260502054505 52 229 1.0 3.0 0.00 0.00 0.00 93 1013.5
20260502054006 53 234 1.0 2.0 0.00 0.00 0.00 93 1013.7
20260502053505 53 218 1.0 2.0 0.00 0.00 0.00 92 1013.6
20260502053217 53 228 2.0 3.0 0.00 0.00 0.00 92 1013.7
20260502052505 53 237 2.0 3.0 0.00 0.00 0.00 91 1013.8
20260502052006 54 228 2.0 6.0 0.00 0.00 0.00 91 1013.9
20260502051506 54 228 2.0 6.0 0.00 0.00 0.00 90 1014.0
20260502051005 54 231 2.0 5.0 0.00 0.00 0.00 90 1014.0
20260502050505 54 217 1.0 3.0 0.00 0.00 0.00 90 1014.2
20260502050006 54 244 2.0 5.0 0.00 0.00 0.00 90 1014.1
20260502045505 54 181 2.0 6.0 0.00 0.00 0.00 89 1014.1
20260502045005 54 250 2.0 6.0 0.00 0.00 0.00 89 1014.1
20260502044505 54 281 4.0 9.0 0.00 0.00 0.00 90 1014.2
20260502044214 54 252 1.0 7.0 0.00 0.00 0.00 89 1014.3
20260502043715 54 248 1.0 5.0 0.00 0.00 0.00 89 1014.4
20260502043007 55 233 3.0 8.0 0.00 0.00 0.00 89 1014.4
20260502042505 55 204 3.0 9.0 0.00 0.00 0.00 89 1014.3
20260502042005 55 226 3.0 7.0 0.00 0.00 0.00 89 1014.4
20260502041715 55 242 3.0 7.0 0.00 0.00 0.00 88 1014.3
20260502041006 55 235 3.0 7.0 0.00 0.00 0.00 88 1014.3
20260502040717 55 229 3.0 10.0 0.00 0.00 0.00 88 1014.4
20260502040009 55 264 5.0 10.0 0.00 0.00 0.00 88 1014.4
20260502035506 55 229 2.0 6.0 0.00 0.00 0.00 88 1014.5
20260502035007 55 238 4.0 8.0 0.00 0.00 0.00 87 1014.5
20260502034505 55 269 3.0 10.0 0.00 0.00 0.00 88 1014.5
20260502034005 55 263 3.0 7.0 0.00 0.00 0.00 87 1014.5
20260502033504 55 240 2.0 7.0 0.00 0.00 0.00 88 1014.5
20260502033006 55 204 2.0 6.0 0.00 0.00 0.00 86 1014.4
20260502032504 55 219 4.0 8.0 0.00 0.00 0.00 86 1014.2
20260502032006 55 204 2.0 7.0 0.00 0.00 0.00 86 1014.1
20260502031717 55 228 2.0 7.0 0.00 0.00 0.00 87 1014.0
20260502031216 55 220 2.0 6.0 0.00 0.00 0.00 86 1014.0
20260502030505 55 241 1.0 3.0 0.00 0.00 0.00 86 1013.9
20260502030216 55 237 2.0 5.0 0.00 0.00 0.00 86 1013.8
20260502025505 55 31 1.0 3.0 0.00 0.00 0.00 85 1013.7
20260502025005 55 242 2.0 10.0 0.00 0.00 0.00 85 1013.8
20260502024716 55 234 1.0 7.0 0.00 0.00 0.00 85 1014.0
20260502024215 55 205 1.0 5.0 0.00 0.00 0.00 85 1014.1
20260502023714 54 233 4.0 6.0 0.00 0.00 0.00 86 1014.2
20260502023007 54 263 3.0 7.0 0.00 0.00 0.00 87 1014.1
20260502022505 53 140 2.0 3.0 0.00 0.00 0.00 87 1014.1
20260502022005 52 184 1.0 3.0 0.00 0.00 0.00 89 1014.0
20260502021506 52 169 1.0 2.0 0.00 0.00 0.00 89 1014.0
20260502021215 51 160 1.0 2.0 0.00 0.00 0.00 89 1014.0
20260502020505 51 172 1.0 1.0 0.00 0.00 0.00 91 1014.0
20260502020215 51 146 0.0 1.0 0.00 0.00 0.00 91 1014.0
20260502015505 51 189 0.0 1.0 0.00 0.00 0.00 87 1014.1
20260502015004 52 169 0.0 0.0 0.00 0.00 0.00 87 1014.0
20260502014505 52 176 0.0 1.0 0.00 0.00 0.00 87 1014.0
20260502014005 52 163 1.0 1.0 0.00 0.00 0.00 87 1014.0
20260502013506 52 188 0.0 0.0 0.00 0.00 0.00 86 1014.1
20260502013006 52 238 0.0 0.0 0.00 0.00 0.00 84 1014.0
20260502012506 53 244 0.0 0.0 0.00 0.00 0.00 84 1014.0
20260502012007 53 156 0.0 0.0 0.00 0.00 0.00 85 1013.9
20260502011505 53 136 0.0 0.0 0.00 0.00 0.00 84 1013.9
20260502011006 54 139 0.0 0.0 0.00 0.00 0.00 82 1013.8
20260502010507 54 193 0.0 3.0 0.00 0.00 0.00 82 1013.8
20260502010216 54 132 1.0 2.0 0.00 0.00 0.00 81 1013.7
20260502005717 55 161 1.0 3.0 0.00 0.00 0.00 79 1013.5
20260502005006 55 140 2.0 5.0 0.00 0.00 0.00 79 1013.3
20260502004505 55 164 1.0 3.0 0.00 0.00 0.00 78 1013.3
20260502004005 56 150 2.0 5.0 0.00 0.00 0.00 78 1013.3
20260502003717 56 128 2.0 5.0 0.00 0.00 0.00 77 1013.1
20260502003216 56 120 2.0 6.0 0.00 0.00 0.00 77 1013.1
20260502002505 56 174 2.0 5.0 0.00 0.00 0.00 76 1013.1
20260502002006 57 144 2.0 5.0 0.00 0.00 0.00 75 1013.2
20260502001506 57 165 2.0 7.0 0.00 0.00 0.00 75 1013.2
20260502001007 57 144 1.0 7.0 0.00 0.00 0.00 74 1013.1
20260502000505 58 117 2.0 7.0 0.00 0.00 0.00 73 1013.1
20260502000218 58 153 2.0 8.0 0.00 0.00 0.00 73 1013.0
20260501235717 58 171 2.0 7.0 0.00 0.00 0.00 72 1012.9
20260501235005 59 160 2.0 8.0 0.00 0.00 0.00 71 1013.0
20260501234506 59 147 4.0 7.0 0.00 0.00 0.00 72 1013.0
20260501234005 59 176 4.0 12.0 0.00 0.00 0.00 71 1012.9
20260501233715 60 158 4.0 7.0 0.00 0.00 0.00 70 1013.0
20260501233218 60 161 3.0 9.0 0.00 0.00 0.00 69 1013.0
20260501232505 60 166 2.0 7.0 0.00 0.00 0.00 69 1012.9
20260501232217 60 145 3.0 8.0 0.00 0.00 0.00 68 1012.9
20260501231505 61 127 3.0 12.0 0.00 0.00 0.00 67 1012.9
20260501231006 61 139 6.0 12.0 0.00 0.00 0.00 65 1012.9
20260501230716 62 134 3.0 12.0 0.00 0.00 0.00 64 1012.8
20260501230007 62 173 5.0 12.0 0.00 0.00 0.00 62 1012.7
20260501225505 63 169 3.0 10.0 0.00 0.00 0.00 60 1012.7
20260501225215 65 123 6.0 10.0 0.00 0.00 0.00 56 1012.6
20260501224506 66 182 3.0 9.0 0.00 0.00 0.00 53 1012.6
20260501224215 67 138 5.0 12.0 0.00 0.00 0.00 51 1012.7
20260501223504 68 179 4.0 10.0 0.00 0.00 0.00 48 1012.5
20260501223007 69 176 3.0 12.0 0.00 0.00 0.00 47 1012.6
20260501222504 70 172 6.0 12.0 0.00 0.00 0.00 44 1012.5
20260501222215 70 191 1.0 10.0 0.00 0.00 0.00 37 1012.6
20260501221505 70 117 3.0 8.0 0.00 0.00 0.00 35 1012.5
20260501221005 70 217 3.0 12.0 0.00 0.00 0.00 36 1012.5
20260501220506 70 265 1.0 8.0 0.00 0.00 0.00 39 1012.5
20260501220006 70 250 4.0 7.0 0.00 0.00 0.00 41 1012.6
20260501215506 70 245 4.0 10.0 0.00 0.00 0.00 41 1012.6
20260501215006 70 255 2.0 10.0 0.00 0.00 0.00 42 1012.6
20260501214716 71 205 2.0 5.0 0.00 0.00 0.00 41 1012.6
20260501214007 71 207 1.0 6.0 0.00 0.00 0.00 39 1012.5
20260501213506 71 253 1.0 6.0 0.00 0.00 0.00 39 1012.6
20260501213006 70 233 3.0 12.0 0.00 0.00 0.00 39 1012.6
20260501212505 70 216 4.0 9.0 0.00 0.00 0.00 39 1012.7
20260501212005 70 232 3.0 13.0 0.00 0.00 0.00 40 1012.8
20260501211716 71 144 5.0 12.0 0.00 0.00 0.00 37 1012.6
20260501211005 71 139 3.0 8.0 0.00 0.00 0.00 36 1012.8
20260501210504 70 174 2.0 9.0 0.00 0.00 0.00 38 1012.8
20260501210215 69 234 4.0 8.0 0.00 0.00 0.00 39 1013.0
20260501205505 70 269 3.0 7.0 0.00 0.00 0.00 38 1013.1
20260501205006 69 144 5.0 9.0 0.00 0.00 0.00 38 1013.1
20260501204505 71 168 3.0 9.0 0.00 0.00 0.00 36 1013.1
20260501204214 70 272 3.0 10.0 0.00 0.00 0.00 36 1013.1
20260501203715 70 175 4.0 10.0 0.00 0.00 0.00 36 1013.1
20260501203005 69 132 4.0 8.0 0.00 0.00 0.00 38 1013.3
20260501202505 70 139 3.0 9.0 0.00 0.00 0.00 39 1013.4
20260501202216 69 357 4.0 14.0 0.00 0.00 0.00 40 1013.2
20260501201715 70 176 5.0 10.0 0.00 0.00 0.00 43 1013.4
20260501201005 68 246 5.0 9.0 0.00 0.00 0.00 41 1013.6
20260501200717 68 137 3.0 12.0 0.00 0.00 0.00 41 1013.7
20260501200006 69 173 5.0 10.0 0.00 0.00 0.00 38 1013.7
20260501195505 68 171 5.0 10.0 0.00 0.00 0.00 38 1013.8
20260501195006 69 159 5.0 9.0 0.00 0.00 0.00 37 1013.7
20260501194506 69 197 1.0 3.0 0.00 0.00 0.00 37 1013.9
20260501194216 68 231 4.0 8.0 0.00 0.00 0.00 37 1014.0
20260501193505 66 241 1.0 6.0 0.00 0.00 0.00 38 1014.1
20260501193216 67 243 2.0 8.0 0.00 0.00 0.00 36 1014.4
20260501192504 68 202 2.0 5.0 0.00 0.00 0.00 37 1014.4
20260501192006 68 44 3.0 7.0 0.00 0.00 0.00 35 1014.4
20260501191717 67 251 5.0 10.0 0.00 0.00 0.00 37 1014.5
20260501191006 67 227 6.0 9.0 0.00 0.00 0.00 38 1014.5
20260501190507 67 196 2.0 8.0 0.00 0.00 0.00 40 1014.7
20260501190216 67 196 3.0 7.0 0.00 0.00 0.00 42 1014.8
20260501185715 67 226 5.0 9.0 0.00 0.00 0.00 42 1014.7
20260501185216 66 291 3.0 9.0 0.00 0.00 0.00 43 1014.8
20260501184505 66 230 3.0 9.0 0.00 0.00 0.00 43 1014.9
20260501184006 66 17 1.0 10.0 0.00 0.00 0.00 43 1014.9
20260501183505 67 262 4.0 8.0 0.00 0.00 0.00 42 1014.9
20260501183007 68 242 3.0 12.0 0.00 0.00 0.00 43 1015.1
20260501182505 71 185 4.0 10.0 0.00 0.00 0.00 40 1015.2
20260501182216 71 181 3.0 10.0 0.00 0.00 0.00 41 1015.2
20260501181716 69 177 3.0 9.0 0.00 0.00 0.00 42 1015.3
20260501181217 68 121 5.0 10.0 0.00 0.00 0.00 40 1015.1
20260501180507 69 224 2.0 7.0 0.00 0.00 0.00 41 1015.2
20260501180005 68 192 3.0 8.0 0.00 0.00 0.00 40 1015.2
20260501175714 69 186 3.0 6.0 0.00 0.00 0.00 40 1015.2
20260501175215 68 72 1.0 3.0 0.00 0.00 0.00 40 1015.3
20260501174714 67 77 3.0 6.0 0.00 0.00 0.00 39 1015.3
20260501174005 68 76 2.0 9.0 0.00 0.00 0.00 39 1015.4
20260501173506 67 91 2.0 6.0 0.00 0.00 0.00 40 1015.5
20260501173006 68 229 3.0 10.0 0.00 0.00 0.00 38 1015.6
20260501172505 68 138 3.0 7.0 0.00 0.00 0.00 39 1015.6
20260501172004 66 222 3.0 7.0 0.00 0.00 0.00 41 1015.6
20260501171505 65 132 1.0 6.0 0.00 0.00 0.00 41 1015.6
20260501171215 64 343 1.0 6.0 0.00 0.00 0.00 41 1015.7